Wind_Speed
28 27 27 27 26 25 24 23 23 22 22 21 21 21 21 22 23 25 25 23 23 23 24 24 23 23 23 21 19 18 17 16 14 13 12 10 8 5 4 4 4 5
28 28 28 27 27 26 25 23 23 23 22 21 21 21 21 22 23 26 26 26 24 24 25 26 26 25 25 24 22 20 19 18 17 15 14 13 11 8 6 5 5 6
28 28 27 27 26 25 25 25 24 24 23 22 22 22 22 22 23 25 26 27 27 26 26 27 28 27 27 27 25 23 22 20 19 18 17 15 14 11 9 7 7 7
27 27 27 26 26 25 25 26 25 23 23 22 22 23 23 23 23 23 25 27 28 28 28 28 28 29 29 29 27 26 24 23 22 21 19 17 16 14 12 10 9 8
26 26 26 26 26 26 26 25 24 23 23 22 22 23 23 23 23 23 24 26 28 29 29 28 29 29 30 30 29 28 26 25 24 24 22 19 18 17 15 13 12 11
27 27 26 26 26 26 26 25 24 23 23 23 23 23 23 24 23 23 24 25 27 29 30 29 29 29 30 31 31 29 28 27 26 26 24 21 20 19 18 16 14 13
28 27 27 27 26 27 26 25 24 24 24 23 24 24 24 24 24 24 24 25 27 29 30 30 30 29 29 31 31 30 29 29 28 28 26 24 22 22 21 19 17 16
29 28 28 28 27 27 27 26 25 25 25 25 25 25 25 25 25 24 24 25 27 29 30 31 31 30 30 31 31 30 30 30 30 30 28 26 25 24 23 22 20 19
29 29 29 29 29 28 27 26 26 25 25 25 26 26 26 26 26 25 25 25 27 29 30 31 32 31 31 32 31 30 30 31 31 31 30 28 27 26 26 25 24 21
29 30 30 30 30 29 28 27 26 26 26 25 25 26 27 27 27 26 26 26 27 29 30 31 32 31 31 31 32 31 30 31 32 32 32 30 29 28 28 28 27 24
29 29 30 30 30 30 28 27 27 27 26 26 25 26 28 28 27 26 26 27 27 29 30 30 31 31 31 31 32 31 30 31 32 33 33 32 30 30 30 30 30 28
27 28 29 29 30 30 29 28 28 28 28 27 26 26 28 29 28 27 27 27 26 27 29 30 29 30 31 31 32 32 32 31 32 33 34 33 32 32 32 32 32 31
26 25 26 26 27 28 29 28 29 29 29 29 28 27 28 29 29 27 27 27 26 26 28 29 29 30 30 31 32 33 33 33 33 34 34 34 34 33 33 33 33 33
26 25 23 23 23 24 25 26 27 28 29 29 29 28 28 29 29 29 28 28 28 28 28 29 30 31 31 31 32 33 34 34 33 34 35 35 35 34 34 35 35 34
27 26 24 23 23 22 22 22 23 24 26 27 27 27 28 29 30 31 31 30 31 31 31 30 32 33 32 32 32 33 34 35 34 34 35 36 36 36 36 36 37 36
27 26 26 25 25 24 23 22 22 22 22 23 24 24 24 26 28 31 32 32 32 32 33 33 34 34 34 33 32 32 34 35 35 34 35 36 37 37 37 37 38 38
28 27 27 27 27 26 25 24 24 24 23 23 23 22 23 24 26 28 30 32 33 32 32 34 35 35 35 34 34 33 34 35 36 36 36 37 38 38 38 39 39 40
30 29 29 29 29 28 27 26 26 26 26 26 25 24 24 24 25 26 27 29 32 32 30 32 34 35 35 35 35 34 35 36 37 38 38 38 39 40 40 40 41 41
33 32 32 32 31 31 29 28 28 28 28 28 27 26 26 26 26 26 26 27 29 31 30 29 30 32 34 35 35 35 35 37 38 40 40 40 41 41 42 42 43 43
35 34 34 34 33 33 32 30 30 30 30 30 29 29 28 28 28 27 27 27 27 29 30 28 28 29 30 32 34 34 35 37 39 41 42 42 43 43 44 44 44 45
35 35 35 35 35 35 34 33 32 31 31 32 32 31 30 30 30 29 29 29 28 30 31 30 29 28 28 29 31 33 35 36 38 41 43 44 45 45 45 45 45 46
33 35 36 37 36 36 35 34 33 33 33 33 34 33 32 31 31 30 30 31 30 31 32 32 31 30 29 29 29 31 34 36 38 40 42 44 45 46 46 46 46 47
32 35 36 36 36 35 34 33 33 33 34 34 34 34 33 32 31 31 31 32 32 32 32 33 33 33 32 31 30 31 33 35 38 40 41 43 43 44 46 46 47 48
33 34 34 34 33 33 32 33 33 33 33 33 33 33 33 33 32 32 32 33 34 35 35 35 35 36 35 34 33 33 34 35 38 40 42 43 43 44 45 46 47 49
34 33 32 32 32 32 32 33 33 33 33 33 33 33 34 34 35 35 35 36 37 38 38 38 38 38 38 37 37 37 37 37 39 41 43 44 44 45 45 47 49 50
33 33 32 33 33 33 33 33 33 33 34 34 34 34 36 37 38 39 39 39 40 41 42 42 42 41 41 40 40 41 41 41 42 43 44 45 45 46 47 49 51 52
Wind_Direction
223 224 225 226 228 229 230 229 230 231 230 229 228 227 226 226 226 227 227 225 225 227 228 227 226 227 230 232 233 234 237 238 239 241 243 249 257 265 289 318 338 347
224 225 226 227 229 231 232 231 231 233 233 230 229 230 229 227 226 228 228 227 225 226 228 229 228 228 230 232 234 235 239 241 243 245 246 250 255 259 269 287 306 320
225 226 227 229 230 232 232 232 232 233 234 233 231 233 233 231 229 229 229 228 226 225 228 229 229 230 231 232 234 236 239 242 245 248 249 250 254 258 263 272 285 299
226 227 228 230 231 232 232 232 232 232 234 235 234 234 235 235 234 231 230 229 227 225 227 230 230 231 232 233 234 236 239 242 246 249 251 251 254 258 262 267 273 283
226 227 228 230 230 231 232 232 232 232 234 236 237 237 237 238 237 234 231 230 228 227 228 230 232 233 234 235 235 236 239 242 246 249 251 252 254 258 261 263 268 274
226 227 228 229 230 231 232 232 232 233 234 236 238 239 240 240 240 238 235 232 230 229 230 232 233 234 236 236 237 237 239 242 246 249 251 252 255 258 259 261 265 270
227 226 227 228 229 231 232 232 232 233 234 234 237 239 241 242 241 240 238 234 232 232 232 234 235 236 237 239 239 238 239 242 245 248 251 252 254 257 259 261 264 267
228 227 228 229 229 231 232 232 232 233 234 235 237 239 241 243 243 241 240 236 234 233 233 235 236 237 238 240 241 240 240 242 245 247 250 251 254 256 258 261 264 266
226 227 227 228 230 231 231 233 234 235 236 237 238 239 240 242 243 242 240 238 236 235 235 236 238 238 239 241 243 242 241 243 245 247 248 250 253 255 257 260 263 265
223 225 226 227 230 232 232 232 235 236 237 238 239 240 240 241 242 241 241 239 238 238 237 237 239 241 241 243 245 244 242 243 244 246 247 249 251 254 257 260 262 264
221 223 225 227 229 232 233 233 235 237 238 239 239 240 240 241 240 240 241 240 240 241 242 240 240 243 243 244 246 246 244 243 244 246 246 247 249 252 255 258 262 264
218 220 224 226 228 231 233 234 235 238 240 240 240 240 241 242 241 240 242 244 243 244 247 247 245 244 245 245 246 247 246 244 245 246 246 246 247 249 252 256 259 263
215 217 221 224 226 230 232 234 235 237 240 241 241 240 241 243 244 243 243 246 248 247 249 252 251 248 247 246 245 247 247 246 245 246 247 247 247 248 251 254 257 261
215 216 219 221 225 227 229 232 233 235 238 240 241 240 240 243 246 247 246 247 250 251 250 252 254 252 249 246 245 246 247 247 246 247 248 249 249 250 251 253 256 258
217 217 219 222 226 228 229 230 231 232 235 239 240 240 239 241 245 249 250 248 247 249 250 250 251 252 251 249 246 245 247 249 248 248 249 251 251 252 252 254 256 257
221 220 222 224 228 231 232 233 235 236 237 240 242 242 241 239 241 246 251 251 249 246 247 248 249 250 251 251 249 248 247 249 250 250 250 251 253 254 254 255 256 258
225 224 226 228 231 234 236 236 239 241 243 245 246 246 245 243 241 242 247 252 254 250 246 247 250 251 251 251 251 250 249 249 250 251 251 251 252 254 255 256 257 258
226 226 229 232 234 236 238 238 240 243 246 248 249 249 249 248 247 246 247 250 256 258 252 249 250 253 254 254 252 251 251 250 250 251 252 252 252 253 255 256 257 259
225 225 228 232 235 237 239 240 241 243 246 248 250 251 252 253 253 252 252 251 255 261 261 257 254 255 257 257 257 254 252 252 252 252 252 252 253 254 255 256 257 259
225 224 226 230 233 235 237 239 241 243 245 248 251 252 253 254 255 256 257 256 256 260 264 265 262 259 258 258 259 258 256 254 254 254 254 254 254 254 255 256 257 258
226 225 226 228 230 232 235 238 241 243 244 246 248 251 253 255 257 258 259 259 259 260 262 265 266 264 261 259 258 258 258 257 256 256 256 256 256 255 256 257 258 260
227 226 227 228 230 233 235 239 241 242 243 244 246 250 253 255 256 257 258 259 260 260 262 264 266 266 265 263 260 257 257 257 257 257 257 258 258 258 258 258 259 260
227 227 229 231 233 236 237 240 241 242 243 245 246 248 251 254 256 257 258 260 261 262 263 264 266 267 267 266 263 260 257 257 257 257 258 259 260 260 261 261 261 261
228 229 231 233 236 238 239 240 241 242 243 244 246 248 250 254 257 259 260 261 262 263 265 265 266 267 268 267 266 263 259 257 257 257 258 259 260 260 261 262 262 262
229 231 233 236 237 238 239 239 240 241 243 244 246 248 249 252 255 258 260 261 262 263 264 265 265 265 266 267 266 265 262 260 258 257 258 259 260 261 262 262 262 263
231 232 234 236 237 238 238 239 240 241 242 244 245 246 247 249 251 253 256 259 261 261 262 263 264 265 266 267 266 266 265 264 262 260 260 260 260 260 261 262 262 262
Height
3186 3188 3190 3192 3193 3195 3196 3198 3199 3200 3202 3203 3204 3206 3207 3208 3210 3210 3211 3212 3214 3215 3215 3216 3217 3218 3218 3220 3221 3222 3222 3223 3224 3224 3225 3225 3225 3226 3225 3225 3225 3225
3184 3186 3188 3189 3191 3193 3195 3196 3197 3198 3200 3201 3202 3204 3205 3206 3207 3208 3209 3210 3212 3213 3214 3214 3215 3216 3217 3218 3219 3221 3221 3222 3223 3223 3224 3224 3224 3225 3225 3225 3225 3225
3182 3184 3185 3187 3189 3191 3193 3194 3195 3196 3198 3199 3200 3202 3203 3204 3205 3206 3207 3208 3210 3211 3212 3212 3213 3214 3215 3216 3218 3219 3220 3220 3221 3222 3222 3223 3223 3223 3224 3224 3224 3224
3179 3181 3183 3185 3187 3189 3190 3191 3193 3194 3196 3197 3198 3200 3201 3202 3203 3204 3205 3206 3208 3209 3210 3211 3212 3213 3214 3214 3216 3217 3218 3219 3220 3220 3221 3221 3222 3222 3223 3223 3223 3223
3177 3179 3181 3183 3185 3186 3188 3189 3191 3192 3194 3195 3196 3197 3198 3200 3201 3202 3203 3204 3205 3207 3208 3209 3210 3211 3212 3213 3214 3215 3216 3217 3218 3218 3219 3220 3221 3221 3221 3221 3222 3222
3175 3177 3179 3180 3182 3184 3185 3187 3189 3190 3191 3192 3194 3195 3196 3197 3198 3200 3201 3202 3203 3205 3206 3207 3208 3209 3210 3211 3212 3213 3215 3216 3216 3217 3217 3218 3219 3219 3220 3220 3220 3221
3172 3174 3176 3178 3179 3181 3182 3184 3186 3187 3189 3190 3191 3192 3193 3194 3196 3197 3199 3200 3201 3202 3204 3205 3206 3207 3208 3208 3210 3211 3213 3214 3214 3215 3216 3216 3217 3218 3218 3218 3219 3219
3170 3172 3173 3175 3177 3178 3180 3182 3183 3185 3187 3188 3189 3190 3191 3192 3193 3195 3196 3197 3199 3200 3201 3202 3203 3204 3206 3206 3207 3209 3210 3211 3212 3213 3214 3215 3215 3216 3216 3216 3217 3217
3166 3168 3170 3172 3174 3175 3177 3179 3181 3183 3184 3185 3187 3188 3189 3190 3191 3192 3194 3195 3196 3197 3198 3200 3201 3202 3203 3204 3205 3206 3208 3209 3209 3210 3211 3212 3213 3214 3214 3214 3215 3215
3163 3165 3167 3169 3171 3172 3174 3177 3178 3180 3181 3183 3184 3185 3186 3187 3188 3190 3191 3192 3193 3194 3195 3197 3198 3199 3201 3201 3202 3203 3205 3207 3207 3208 3209 3210 3211 3211 3212 3212 3212 3213
3160 3162 3164 3166 3168 3169 3172 3174 3176 3177 3178 3180 3182 3183 3183 3184 3186 3187 3188 3189 3190 3191 3192 3194 3196 3197 3198 3199 3200 3201 3202 3204 3204 3205 3206 3207 3208 3209 3209 3209 3209 3210
3157 3159 3161 3163 3165 3167 3169 3172 3173 3174 3176 3177 3179 3180 3181 3182 3183 3184 3185 3186 3188 3189 3190 3191 3193 3194 3195 3196 3197 3198 3199 3201 3202 3202 3203 3204 3205 3206 3207 3207 3206 3207
3155 3157 3159 3161 3163 3165 3167 3169 3170 3172 3173 3174 3176 3178 3179 3180 3180 3182 3183 3184 3185 3187 3188 3188 3190 3191 3192 3193 3195 3195 3196 3197 3199 3199 3200 3201 3202 3203 3204 3204 3204 3204
3153 3155 3157 3159 3161 3163 3165 3166 3168 3169 3170 3172 3173 3175 3177 3177 3178 3179 3181 3182 3183 3184 3186 3186 3187 3188 3189 3190 3191 3192 3193 3194 3196 3197 3197 3198 3199 3200 3201 3201 3201 3201
3151 3153 3156 3157 3159 3161 3162 3164 3165 3167 3168 3169 3170 3172 3174 3175 3176 3177 3177 3179 3180 3181 3183 3184 3184 3184 3185 3186 3188 3189 3190 3191 3192 3194 3194 3195 3196 3197 3197 3198 3198 3198
3149 3151 3153 3155 3157 3158 3160 3162 3163 3165 3166 3167 3168 3169 3171 3172 3174 3174 3174 3175 3176 3178 3180 3180 3180 3181 3182 3183 3185 3187 3188 3188 3189 3191 3192 3192 3192 3193 3194 3194 3194 3194
3146 3149 3151 3153 3154 3156 3158 3160 3161 3162 3163 3164 3166 3167 3168 3170 3171 3172 3172 3172 3172 3174 3176 3177 3177 3177 3179 3180 3182 3183 3185 3185 3186 3187 3188 3189 3189 3189 3189 3190 3190 3190
3143 3146 3148 3150 3152 3153 3155 3157 3159 3160 3161 3162 3163 3164 3166 3167 3168 3169 3170 3171 3170 3170 3172 3174 3174 3175 3176 3177 3179 3180 3182 3182 3183 3183 3184 3184 3185 3185 3185 3186 3186 3186
3140 3143 3145 3147 3149 3151 3153 3155 3156 3157 3158 3159 3160 3162 3163 3164 3165 3166 3167 3168 3168 3167 3168 3170 3171 3172 3173 3174 3175 3177 3178 3179 3179 3179 3179 3180 3180 3181 3181 3181 3182 3182
3138 3140 3142 3144 3146 3148 3150 3152 3153 3154 3156 3157 3158 3159 3160 3161 3162 3163 3164 3165 3166 3165 3165 3166 3167 3169 3170 3171 3172 3174 3175 3176 3176 3175 3176 3176 3176 3177 3177 3177 3177 3178
3135 3137 3139 3141 3143 3145 3147 3149 3150 3152 3153 3154 3155 3156 3157 3158 3159 3160 3161 3162 3163 3163 3163 3163 3164 3165 3166 3168 3169 3170 3171 3172 3172 3172 3172 3171 3172 3172 3173 3173 3173 3173
3132 3134 3136 3138 3140 3142 3144 3146 3147 3149 3150 3151 3152 3153 3154 3155 3156 3157 3158 3159 3159 3160 3160 3160 3160 3161 3162 3164 3165 3167 3167 3167 3167 3167 3167 3167 3167 3168 3168 3169 3169 3169
3129 3131 3133 3135 3137 3139 3141 3143 3144 3146 3147 3148 3150 3151 3151 3152 3153 3154 3155 3155 3156 3157 3157 3157 3157 3158 3158 3160 3161 3162 3163 3163 3162 3163 3162 3162 3163 3163 3163 3164 3164 3164
3126 3128 3130 3132 3134 3136 3138 3140 3141 3142 3144 3145 3146 3147 3148 3149 3149 3150 3151 3152 3152 3153 3153 3154 3154 3154 3154 3155 3156 3157 3158 3158 3158 3158 3157 3157 3158 3158 3158 3158 3158 3159
3123 3125 3127 3129 3131 3133 3135 3136 3138 3139 3140 3142 3143 3144 3145 3146 3146 3146 3147 3148 3148 3149 3149 3149 3149 3150 3150 3151 3151 3152 3153 3153 3153 3153 3152 3152 3153 3153 3153 3152 3152 3152
3120 3122 3124 3126 3127 3129 3131 3133 3135 3136 3137 3138 3139 3141 3141 3142 3142 3142 3142 3143 3144 3144 3144 3144 3144 3145 3145 3146 3147 3147 3147 3148 3148 3147 3147 3147 3148 3148 3148 3147 3147 3147